Williamsport, PA

4:17 AM EDT on April 21, 2018 (GMT -0400)
Williamsport Rgnl

Weather History for KIPT - April, 2014

Change the Weather History Date:

Friday, April 25, 2014

  Actual Average Record
Temperature  
Mean Temperature 51 °F 53 °F  
Max Temperature 65 °F 65 °F 93 °F (1925)
Min Temperature 36 °F 42 °F 26 °F (1956)
Degree Days  
Heating Degree Days 14 12  
Month to date heating degree days 410 403  
Since 1 July heating degree days 6242 5699  
Cooling Degree Days 0 0  
Month to date cooling degree days 9 0  
Year to date cooling degree days 9 0  
Moisture  
Dew Point 31 °F    
Average Humidity 53    
Maximum Humidity 86    
Minimum Humidity 20    
Precipitation  
Precipitation 0.10 in 0.10 in 2.00 in (1910)
Month to date precipitation 2.02 2.70  
Year to date precipitation 8.71 10.71  
Snow  
Snow 0.00 in 0.00 in T in (1983)
Month to date snowfall T 1.1  
Since 1 July snowfall 45.9 36.0  
Snow Depth 0.00 in    
Sea Level Pressure  
Sea Level Pressure 29.86 in    
Wind  
Wind Speed 8 mph (ESE)    
Max Wind Speed 20 mph    
Max Gust Speed 30 mph    
Visibility 10 miles    
Events Rain    
T = Trace of Precipitation, MM = Missing Value Source: NWS Daily Summary

Daily Weather History Graph

Daily Weather History Graph

Search for Another Location

Airport or City:

Astronomy

Apr. 25, 2014 Rise Set
Actual Time 6:13 AM EDT 7:58 PM EDT
Civil Twilight 5:44 AM EDT 8:28 PM EDT
Nautical Twilight 5:08 AM EDT 9:03 PM EDT
Astronomical Twilight 4:30 AM EDT 9:42 PM EDT
Moon 4:02 AM EDT (4/25) 4:16 PM EDT (4/25)
Length of Visible Light 14h 44m
Length of Day
13h 45m
Waning Crescent, 15% of the Moon is Illuminated
Apr 25
Waning Crescent
Apr 29
New
May 6
First Quarter
May 14
Full
May 21
Last Quarter

Hourly Weather History & Observations

Time (EDT) Temp. Windchill Dew Point Humidity Pressure Visibility Wind Dir Wind Speed Gust Speed Precip Events Conditions
12:54 AM 41.0 °F - 24.1 °F 51% 30.04 in 10.0 mi Calm Calm - N/A   Clear
1:54 AM 39.0 °F - 25.0 °F 57% 30.04 in 10.0 mi Calm Calm - N/A   Clear
2:54 AM 37.0 °F - 23.0 °F 57% 30.02 in 10.0 mi Calm Calm - N/A   Clear
3:54 AM 37.0 °F - 24.1 °F 59% 30.03 in 10.0 mi Calm Calm - N/A   Partly Cloudy
4:54 AM 39.0 °F 35.7 °F 25.0 °F 57% 30.01 in 10.0 mi ENE 4.6 mph - N/A   Overcast
5:54 AM 37.9 °F - 26.1 °F 62% 30.02 in 10.0 mi Calm Calm - 0.00 in   Partly Cloudy
6:54 AM 39.0 °F 35.7 °F 26.1 °F 60% 30.01 in 10.0 mi ENE 4.6 mph - N/A   Clear
7:54 AM 42.1 °F 40.2 °F 24.1 °F 49% 30.00 in 10.0 mi East 3.5 mph - N/A   Clear
8:54 AM 48.9 °F - 21.0 °F 33% 29.98 in 10.0 mi ENE 11.5 mph - N/A   Clear
9:54 AM 52.0 °F - 18.0 °F 26% 29.95 in 10.0 mi ESE 5.8 mph 19.6 mph N/A   Clear
10:54 AM 55.9 °F - 21.0 °F 26% 29.93 in 10.0 mi East 8.1 mph 16.1 mph N/A   Clear
11:54 AM 60.1 °F - 19.0 °F 20% 29.89 in 10.0 mi South 9.2 mph 20.7 mph N/A   Clear
12:54 PM 61.0 °F - 21.0 °F 21% 29.86 in 10.0 mi SE 16.1 mph 26.5 mph N/A   Scattered Clouds
1:54 PM 62.1 °F - 24.1 °F 23% 29.81 in 10.0 mi South 12.7 mph 28.8 mph N/A   Partly Cloudy
2:54 PM 63.0 °F - 27.0 °F 26% 29.78 in 10.0 mi SE 17.3 mph 25.3 mph N/A   Clear
3:54 PM 64.0 °F - 28.9 °F 27% 29.74 in 10.0 mi SSE 11.5 mph 24.2 mph N/A   Clear
4:54 PM 57.9 °F - 35.1 °F 42% 29.75 in 7.0 mi SSE 13.8 mph 21.9 mph 0.00 in Rain Rain
5:54 PM 54.0 °F - 41.0 °F 62% 29.74 in 10.0 mi SE 9.2 mph 17.3 mph 0.05 in Rain Light Rain
6:54 PM 53.1 °F - 41.0 °F 64% 29.74 in 10.0 mi SSE 17.3 mph 28.8 mph 0.00 in Rain Light Rain
7:54 PM 50.0 °F - 42.1 °F 74% 29.75 in 10.0 mi East 12.7 mph - 0.02 in   Overcast
8:54 PM 50.0 °F - 42.1 °F 74% 29.75 in 10.0 mi Variable 4.6 mph - N/A   Overcast
9:11 PM 50.0 °F - 42.1 °F 74% 29.75 in 10.0 mi Variable 5.8 mph - 0.00 in Rain Light Rain
9:54 PM 48.9 °F - 43.0 °F 80% 29.75 in 9.0 mi East 9.2 mph - 0.00 in Rain Light Rain
10:36 PM 48.0 °F - 43.0 °F 83% 29.73 in 9.0 mi ENE 16.1 mph 20.7 mph 0.02 in Rain Light Rain
10:54 PM 46.9 °F - 43.0 °F 86% 29.73 in 9.0 mi ENE 16.1 mph 24.2 mph 0.02 in Rain Light Rain
11:10 PM 46.9 °F - 43.0 °F 86% 29.73 in 10.0 mi ENE 13.8 mph - 0.00 in Rain Light Rain
11:41 PM 46.9 °F - 42.1 °F 83% 29.73 in 10.0 mi ENE 8.1 mph 16.1 mph 0.00 in   Overcast
11:54 PM 46.9 °F - 42.1 °F 83% 29.75 in 6.0 mi NE 4.6 mph - 0.00 in   Haze